Regional Weather Roundup
Issued by NWS

Home | Current Version | Previous Version | Graphics & Text | Print | Product List | Glossary On
Versions: 1 2 3 4 5 6 7 8 9 10 11 12 13 14 15 16 17 18 19 20 21 22 23 24 25 26 27 28 29 30 31 32 33 34 35 36 37 38 39 40 41 42 43 44 45 46 47 48 49 50
704
ASUS43 KOAX 221102
RWRNE

WEATHER ROUNDUP FOR NEBRASKA
NATIONAL WEATHER SERVICE OMAHA NE
500 AM CST THU FEB 22 2018

NOTES: SATELLITE DATA IS BEING USED TO AUGMENT CLOUD COVER ABOVE
       12000 FEET.
       "FAIR" INDICATES FEW OR NO CLOUDS BELOW 12,000 FEET WITH NO
       SIGNIFICANT WEATHER AND/OR OBSTRUCTIONS TO VISIBILITY.


NEZ001>004-019>022-054>056-221200-
NEBRASKA PANHANDLE

CITY           SKY/WX    TMP DP  RH WIND       PRES   REMARKS
SCOTTSBLUFF    FAIR       5   2  87 E5        30.10F WCI  -4
ALLIANCE       FAIR       1   0  95 S6        30.10F WCI -10
CHADRON        CLOUDY    15   7  70 S14       30.14S WCI   0
GORDON         FAIR      12   7  80 CALM      30.14S
KIMBALL        CLOUDY    10   8  92 CALM      30.04S
SIDNEY         CLOUDY    19  14  81 S9        30.09S WCI   8
$$

NEZ057>060-069>072-079>082-221200-
SOUTHWEST NEBRASKA

CITY           SKY/WX    TMP DP  RH WIND       PRES   REMARKS
NORTH PLATTE   CLOUDY    20  15  81 SE15      30.24F WCI   6
IMPERIAL       FAIR      19  11  70 SE8       30.19F WCI   9
MCCOOK         CLOUDY    22  11  62 E12       30.27F WCI  10
OGALLALA       MOCLDY    22  13  70 SE7       30.19F WCI  13
$$

NEZ005>010-023>029-035>040-094-221200-
NORTH CENTRAL NEBRASKA

CITY           SKY/WX    TMP DP  RH WIND       PRES   REMARKS
VALENTINE      FAIR      11   7  84 S6        30.25F WCI   1
AINSWORTH      FAIR      15  14  95 S7        30.27F WCI   6
BROKEN BOW     CLOUDY    20  16  84 SE9       30.29F WCI   9
O`NEILL        FLURRIES  19  17  93 SE9       30.35F WCI   8
ORD            LGT SNOW  19  17  92 SE5       30.34F FOG     WCI  12
THEDFORD         N/A     20  17  88 S6        30.24F WCI  13
$$

NEZ041-046>049-061>064-073>077-083>087-221200-
SOUTH CENTRAL NEBRASKA

CITY           SKY/WX    TMP DP  RH WIND       PRES   REMARKS
GRAND ISLAND   CLOUDY    21  17  84 E7        30.37F WCI  12
AURORA         CLOUDY    20  18  91 E8        30.37F WCI  11
HASTINGS       CLOUDY    20  16  84 E9        30.36F WCI   9
HEBRON         FLURRIES  23  21  92 NE8       30.38F WCI  14
HOLDREGE       CLOUDY    21  16  82 E10       30.31F WCI   9
KEARNEY        FLURRIES  20  16  84 E9        30.34F WCI   9
YORK           CLOUDY    21  21 100 E10       30.39F WCI  10
$$

NEZ011>018-030>034-042>045-221200-
NORTHEAST NEBRASKA

CITY           SKY/WX    TMP DP  RH WIND       PRES   REMARKS
NORFOLK        CLOUDY    20  18  92 E9        30.40F WCI   9
ALBION         FLURRIES  22  19  87 SE7       30.38F WCI  13
BLAIR          FLURRIES  22  20  91 NE7       30.43S WCI  13
COLUMBUS       FLURRIES  20  17  88 E10       30.43F WCI   9
FREMONT        LGT SNOW  22  19  91 NE6       30.43F WCI  14
TEKAMAH        CLOUDY    21  19  92 N6        30.48F WCI  13
WAYNE          CLOUDY    21  20  96 SE7       30.44S WCI  12
$$

NEZ050>053-065>068-078-088>093-221200-
SOUTHEAST NEBRASKA

CITY           SKY/WX    TMP DP  RH WIND       PRES   REMARKS
LINCOLN        LGT SNOW  21  19  93 NE8       30.44F FOG     WCI  12
OMAHA EPPLEY   LGT SNOW  23  20  88 N5        30.47F FOG     WCI  17
BEATRICE       LGT SNOW  24  22  93 NE5       30.41F WCI  18
FALLS CITY     MIX PCPN  25  23  92 NE5       30.40F FOG     WCI  19
NEBRASKA CITY  CLOUDY    23  23 100 NE9       30.41F FOG     WCI  13
PLATTSMOUTH    LGT SNOW  23  22  95 NE8       30.43S WCI  14
$$

NEZ044-045-051>053-067-221200-
OMAHA AREA

CITY           SKY/WX    TMP DP  RH WIND       PRES   REMARKS
OMAHA EPPLEY   LGT SNOW  23  20  88 N5        30.47F FOG     WCI  17
BLAIR          FLURRIES  22  20  91 NE7       30.43S WCI  13
FREMONT        LGT SNOW  22  19  91 NE6       30.43F WCI  14
MILLARD        LGT SNOW  24  21  89 CALM      30.45F
OFFUTT AFB     FLURRIES  19  16  86 NE7       30.46S WCI  10
PLATTSMOUTH    LGT SNOW  23  22  95 NE8       30.43S WCI  14
WAHOO          FLURRIES  22  19  89 NE5       30.44F WCI  15
$$




USA.gov is the U.S. government's official web portal to all federal, state and local government web resources and services.